"Pseudo-MPEC" for JKt020

Created 2025 May 20 2:31:05 UT using Find_Orb

Click here for an explanation of pseudo-MPECs

 
 Astrometry: 
     JKt020 *3C2025 04 26.57687322 23 21.655-04 50 53.02   ~4R3H 23.2 rVNEOCPT09
     JKt020  3C2025 04 26.58814222 23 23.611-04 50 38.90   ~4R3H 22.4 rVNEOCPT09
     JKt020  3C2025 04 26.59940422 23 25.577-04 50 25.04   ~4R3H 22.3 rVNEOCPT09
     JKt020  3C2025 04 26.62265522 23 29.662-04 49 55.88   ~4R3Hx22.5 rVNEOCPT09
     JKt020  3C2025 04 27.58591922 26 17.724-04 29 58.99   ~4S1H 22.6 rVNEOCPT09
     JKt020  3C2025 04 27.59715122 26 19.668-04 29 44.99   ~4S1H 22.4 rVNEOCPT09
     JKt020  3C2025 04 27.60871222 26 21.667-04 29 30.66   ~4S1H 22.4 rVNEOCPT09
     JKt020  3C2025 04 27.61997222 26 23.606-04 29 16.66   ~4S1H 22.3 rVNEOCPT09
     JKt020  3C2025 04 28.61593422 29 16.046-04 08 42.11   ~4SFH 22.48GVNEOCPT14
     JKt020  3C2025 04 28.61714522 29 16.246-04 08 40.67   ~4SFH 22.33GVNEOCPT14
     JKt020  3C2025 04 28.61848022 29 16.480-04 08 39.03   ~4SFH 22.20GVNEOCPT14

Station data:
(T09) Mauna Kea-UH/Tholen NEO Follow-Up (Subaru)  (N19.825504 W155.476019)
   US/Hawaii.  Observer J. Kleyna. 8.2-m f/2.2 Subaru reflector.
(T14) Mauna Kea-UH/Tholen NEO Follow-Up (CFHT)  (N19.825252 W155.468876)
   US/Hawaii.  Observer R. Weryk. 3.6-m Canada-France-Hawaii Telescope.

Orbital elements:  JKt020
   Perihelion 2025 Mar 28.11236 +/- 6.57 TT =  2:41:47 (JD 2460762.61236)
Epoch 2025 Apr 28.0 TT = JDT 2460793.5   Earth MOID: 0.2492      AutoNEOCP
M   7.27248766 +/- 4.7              (J2000 ecliptic)
n   0.23544974 +/- 0.102            Peri.   31.54488 +/- 5.7
a   2.59739043 +/- 0.751            Node   237.00594 +/- 2.7
e   0.5161114 +/- 0.115             Incl.    6.54146 +/- 0.09
P   4.18606                H 19.61  G  0.15   U 11.2
q 1.25684749 +/- 0.0651    Q 3.93793336 +/- 1.44
10 of 11 observations 2025 Apr. 26-28; mean residual 0".05
Residuals in arcseconds: 
250426 T09  .05+  .05-    250427 T09  .06-  .08-    250428 T14  .04+  .04+    
250426 T09  .06-  .08+    250427 T09  .01-  .01+    250428 T14  .06-  .02-    
250426 T09  .02+  .04-    250427 T09  .05+  .02+    250428 T14  .02+  .03-    
250426 T09( .67+  .25+)   250427 T09  .01+  .07+    

Ephemerides (geocentric):
Date (UTC) HH   RA             Dec           delta  r     elong  mag " sig PA
---- --------  ------------   ------------  ------ ------ -----  --- --------
2025 05 20 03  23 26 09.436   +02 54 16.57  1.4440 1.3820  65.8 22.7 71.8  82
2025 05 20 04  23 26 15.491   +02 55 02.61  1.4440 1.3822  65.8 22.7 72.2  82
2025 05 20 05  23 26 21.543   +02 55 48.64  1.4439 1.3824  65.8 22.7 72.6  82
2025 05 20 06  23 26 27.594   +02 56 34.66  1.4439 1.3826  65.8 22.7 73.0  82
2025 05 20 07  23 26 33.642   +02 57 20.66  1.4439 1.3828  65.8 22.7 73.4  81
2025 05 20 08  23 26 39.688   +02 58 06.65  1.4439 1.3829  65.8 22.7 73.8  81
2025 05 20 09  23 26 45.732   +02 58 52.62  1.4438 1.3831  65.8 22.7 74.3  81
2025 05 20 10  23 26 51.774   +02 59 38.58  1.4438 1.3833  65.9 22.7 74.7  81
2025 05 20 11  23 26 57.814   +03 00 24.53  1.4438 1.3835  65.9 22.7 75.1  81
2025 05 20 12  23 27 03.851   +03 01 10.46  1.4438 1.3837  65.9 22.7 75.5  81
2025 05 20 13  23 27 09.887   +03 01 56.37  1.4437 1.3838  65.9 22.7 75.9  81
2025 05 20 14  23 27 15.920   +03 02 42.28  1.4437 1.3840  65.9 22.7 76.4  81
2025 05 20 15  23 27 21.951   +03 03 28.16  1.4437 1.3842  65.9 22.7 76.8  81
2025 05 20 16  23 27 27.980   +03 04 14.04  1.4437 1.3844  65.9 22.7 77.2  81
2025 05 20 17  23 27 34.007   +03 04 59.89  1.4436 1.3846  65.9 22.7 77.6  81
2025 05 20 18  23 27 40.032   +03 05 45.74  1.4436 1.3848  66.0 22.7 78.1  81
2025 05 20 19  23 27 46.055   +03 06 31.57  1.4436 1.3849  66.0 22.7 78.5  81
2025 05 20 20  23 27 52.075   +03 07 17.38  1.4436 1.3851  66.0 22.8 78.9  81
2025 05 20 21  23 27 58.094   +03 08 03.18  1.4435 1.3853  66.0 22.8 79.4  81
2025 05 20 22  23 28 04.110   +03 08 48.97  1.4435 1.3855  66.0 22.8 79.8  81
2025 05 20 23  23 28 10.124   +03 09 34.74  1.4435 1.3857  66.0 22.8 80.2  81
2025 05 21 00  23 28 16.136   +03 10 20.50  1.4435 1.3859  66.0 22.8 80.7  81
2025 05 21 01  23 28 22.146   +03 11 06.24  1.4434 1.3861  66.0 22.8 81.1  81
2025 05 21 02  23 28 28.154   +03 11 51.97  1.4434 1.3862  66.0 22.8 81.6  81
2025 05 21 03  23 28 34.160   +03 12 37.68  1.4434 1.3864  66.1 22.8 82.0  81
2025 05 21 04  23 28 40.163   +03 13 23.38  1.4434 1.3866  66.1 22.8 82.4  81
2025 05 21 05  23 28 46.165   +03 14 09.06  1.4433 1.3868  66.1 22.8 82.9  81
2025 05 21 06  23 28 52.164   +03 14 54.73  1.4433 1.3870  66.1 22.8 83.3  81
2025 05 21 07  23 28 58.161   +03 15 40.39  1.4433 1.3872  66.1 22.8 83.8  81
2025 05 21 08  23 29 04.156   +03 16 26.03  1.4432 1.3873  66.1 22.8 84.2  80
2025 05 21 09  23 29 10.149   +03 17 11.66  1.4432 1.3875  66.1 22.8 84.7  80
2025 05 21 10  23 29 16.140   +03 17 57.27  1.4432 1.3877  66.1 22.8 85.1  80
2025 05 21 11  23 29 22.129   +03 18 42.86  1.4432 1.3879  66.2 22.8 85.6  80
2025 05 21 12  23 29 28.115   +03 19 28.45  1.4431 1.3881  66.2 22.8 86.0  80
2025 05 21 13  23 29 34.099   +03 20 14.01  1.4431 1.3883  66.2 22.8 86.5  80
2025 05 21 14  23 29 40.082   +03 20 59.57  1.4431 1.3885  66.2 22.8 87.0  80
2025 05 21 15  23 29 46.062   +03 21 45.10  1.4431 1.3886  66.2 22.8 87.4  80
2025 05 21 16  23 29 52.040   +03 22 30.63  1.4430 1.3888  66.2 22.8 87.9  80
2025 05 21 17  23 29 58.016   +03 23 16.13  1.4430 1.3890  66.2 22.8 88.4  80
2025 05 21 18  23 30 03.989   +03 24 01.63  1.4430 1.3892  66.2 22.8 88.8  80
2025 05 21 19  23 30 09.961   +03 24 47.11  1.4430 1.3894  66.3 22.8 89.3  80
2025 05 21 20  23 30 15.930   +03 25 32.57  1.4429 1.3896  66.3 22.8 89.8  80
2025 05 21 21  23 30 21.898   +03 26 18.02  1.4429 1.3898  66.3 22.8 90.2  80
2025 05 21 22  23 30 27.863   +03 27 03.46  1.4429 1.3899  66.3 22.8 90.7  80
2025 05 21 23  23 30 33.826   +03 27 48.88  1.4428 1.3901  66.3 22.8 91.2  80
2025 05 22 00  23 30 39.787   +03 28 34.28  1.4428 1.3903  66.3 22.8 91.6  80
2025 05 22 01  23 30 45.746   +03 29 19.67  1.4428 1.3905  66.3 22.8 92.1  80
2025 05 22 02  23 30 51.702   +03 30 05.05  1.4428 1.3907  66.3 22.8 92.6  80